Regional Weather Roundup
Issued by NWS Wakefield, VA

Home | Current Version | Previous Version | Graphics & Text | Print | Product List | Glossary On
Versions: 1 2 3 4 5 6 7 8 9 10 11 12 13 14 15 16 17 18 19 20 21 22 23 24 25 26 27 28 29 30 31 32 33 34 35 36 37 38 39 40 41 42 43 44 45 46 47 48 49 50
000
ASUS41 KAKQ 151410
RWRAKQ

REGIONAL WEATHER ROUNDUP
NATIONAL WEATHER SERVICE WAKEFIELD VA
1000 AM EDT MON SEP 15 2014

Note: "fair" indicates few or no clouds below 12,000 feet with no
significant weather and/or obstructions to visibility. * = Denotes
station may not report precipitation (e.g., rain,snow,etc.),
thunder or fog.

VAZ042-051-052>054-056-151500-
NORTHERN VIRGINIA

CITY           SKY/WX    TMP DP  RH WIND       PRES   REMARKS
WASH NATIONAL  MOSUNNY   68  53  58 CALM      30.26S
DULLES         MOSUNNY   62  52  69 CALM      30.26S
FORT BELVOIR   SUNNY     65  55  69 SE5       30.26S
QUANTICO       MOSUNNY   64  54  69 VRB7      30.27R
FREDERICKSBRG* SUNNY     65  58  76 CALM      30.25R
STAFFORD*      SUNNY     64  60  87 CALM      30.29S
WARRENTON      SUNNY     64  59  83 NE3       30.26R
CULPEPER*      SUNNY    N/A N/A N/A CALM      30.27R
MANASSAS*      NOT AVBL
LEESBURG*      SUNNY     63  54  72 NW3       30.27S
WINCHESTER     SUNNY     59  52  77 CALM      30.26S
FRONT ROYAL*   SUNNY     55  54  94 CALM      30.26S
LURAY*         FOG       54  54 100 CALM      30.26F VSB 1/4
$$

VAZ048-049-060>072-079>083-151500-
CENTRAL AND SOUTH CENTRAL VIRGINIA...AND NORTH CENTRAL NORTH CAROLINA

CITY           SKY/WX    TMP DP  RH WIND       PRES   REMARKS
RICHMOND       PTSUNNY   71  54  54 CALM      30.25S
CHESTERFIELD*  CLOUDY    66  50  55 E3        30.26S
PETERSBURG*    CLOUDY    66  57  71 E3        30.25S
HANOVER        MOSUNNY   68  56  65 E6        30.26S
TAPPAHANNOCK*  CLOUDY    67  56  69 CALM      30.25S
CHARLOTTSVILLE PTSUNNY   63  55  75 CALM      30.25S
ORANGE*        PTSUNNY   63  54  72 N3        30.27R
LOUISA*        PTSUNNY   64  57  77 CALM      30.24S
FARMVILLE*     CLOUDY    68  55  64 NE3       30.22F
CREWE*         MOSUNNY   70  57  64 SE3       30.24S
FORT PICKETT*  CLOUDY    65  58  78 CALM      30.25S
LUNENBURG*     CLOUDY    65  59  80 NE3       30.25R
SOUTH HILL*    CLOUDY    70  57  64 CALM      30.30R
LAWRENCEVILLE* CLOUDY    65  59  79 CALM      30.25R
ROANOKE RAPIDS PTSUNNY   64  59  82 CALM      30.25S
RALEIGH        CLOUDY    66  59  78 S3        30.26S
$$

VAZ088>098-151500-
SOUTHEAST VIRGINIA

CITY           SKY/WX    TMP DP  RH WIND       PRES   REMARKS
NORFOLK        CLOUDY    71  58  63 NE6       30.23R
VIRGINIA BEACH PTSUNNY   72  60  66 NE8       30.22R
NORFOLK NAVAL  PTSUNNY   72  59  63 E5        30.24S
WEST POINT*    NOT AVBL
NEWPORT NEWS   CLOUDY    74  60  61 N5        30.24R
LANGLEY AFB    CLOUDY    70  60  70 E5        30.23R
FORT EUSTIS    CLOUDY    70  54  56 N5        30.22S
WILLIAMSBURG*  CLOUDY    72  61  68 CALM      30.25S
HR EXEC AP*    MOSUNNY   72  63  73 CALM      30.25S
FRANKLIN*        N/A     68  61  77 CALM      30.24F
WAKEFIELD      CLOUDY    69  58  67 CALM      30.25R
$$

VAZ020-022-025-037-045-151500-
WEST CENTRAL AND SOUTHWEST VIRGINIA

CITY           SKY/WX    TMP DP  RH WIND       PRES   REMARKS
STAUNTON*      MOSUNNY   55  54  95 CALM      30.28S
HOT SPRINGS VA NOT AVBL
LYNCHBURG      CLOUDY    63  57  81 S3        30.27R
DANVILLE       CLOUDY    67  59  75 SW3       30.25S
SOUTH BOSTON*  NOT AVBL
MARTINSVILLE   MOSUNNY   70  61  73 CALM      30.27S
ROANOKE        MOSUNNY   65  58  78 W3        30.27S
BLACKSBURG     CLOUDY    63  63 100 CALM      30.28S
DUBLIN*        CLOUDY    60  60 100 CALM      30.28S FOG
MARION*        CLOUDY    64  61  89 CALM      30.29S
HILLSVILLE*    FOG       59  59 100 CALM      30.28S VSB 1/2
RICHLANDS*     FOG       64  62  96 CALM      30.27S VSB 1/4
WISE*          CLOUDY    64  64 100 SW6       30.27S
ABINGDON*      CLOUDY    67  63  88 CALM      30.25S
$$

MDZ021>025-VAZ099-100-151500-
SOUTHERN MARYLAND AND THE DELMARVA PENINSULA

CITY           SKY/WX    TMP DP  RH WIND       PRES   REMARKS
PATUXENT RIVER PTSUNNY   66  54  65 E6        30.25R
BAY BRIDGE APT   N/A     64  46  52 E7        30.26R
LEONARDTOWN    MOSUNNY   66  55  68 E5        30.26S
DOVER          SUNNY     63  54  70 VRB6      30.23S
GEORGETOWN     SUNNY     66  53  63 VRB7      30.25S
EASTON         PTSUNNY   64  54  68 CALM      30.29R
CAMBRIDGE      PTSUNNY   64  52  63 CALM      30.25R
SALISBURY      SUNNY     68  52  56 NE3       30.25S
OCEAN CITY     SUNNY     68  52  56 N3        30.24S
WALLOPS ISLAND MOSUNNY   69  53  56 E7        30.25S
ACCOMACK*      CLOUDY    66  54  63 E6        30.24F
$$

NCZ012>017-030>032-151500-
EASTERN NORTH CAROLINA

CITY           SKY/WX    TMP DP  RH WIND       PRES   REMARKS
ELIZABETH CITY CLOUDY    69  61  75 N7        30.23S
AHOSKIE*       PTSUNNY   64  58  81 CALM      30.25S
EDENTON*       CLOUDY    67  62  83 N3        30.24R
CURRITUCK*     CLOUDY    69  62  78 CALM      30.24S
KILL DEVIL HLS CLOUDY    70  59  68 NE6       30.21S
MANTEO         PTSUNNY   71  60  68 N9        30.22S
CAPE HATTERAS  PTSUNNY   72  62  71 NE8       30.20R
TARBORO*       CLOUDY    66  60  81 CALM      30.26R
GOLDSBORO      PTSUNNY   67  66  97 E5        30.23S
WASHINGTON     CLOUDY    66  62  86 N3        30.25R
GREENVILLE     CLOUDY    66  63  88 CALM      30.26R
NEW BERN       CLOUDY    70  62  76 N7        30.24R
WILMINGTON     CLOUDY    71  64  78 NE6       30.21S
$$

VAZ048-151500-
ELSEWHERE

CITY           SKY/WX    TMP DP  RH WIND       PRES   REMARKS
HARRISBURG PA  SUNNY     62  51  67 CALM      30.25S
BALTIMORE      MOSUNNY   65  50  58 NE5       30.25S
ANNAPOLIS      CLOUDY    65  53  65 NE6       30.25R
ANDREWS AFB    PTSUNNY   65  55  71 VRB5      30.25S
WILMINGTON DE  SUNNY     64  49  57 NE5       30.25F
PHILADELPHIA   MOSUNNY   63  48  58 NE7       30.24F
WILDWOOD NJ*   SUNNY     63  52  67 NW7       30.25S
ATLANTIC CITY  SUNNY     63  54  72 N5        30.24S
HENDERSON NC   CLOUDY    66  58  75 CALM      30.25S
GREENSBORO     CLOUDY    67  60  78 CALM      30.24S
ROCKY MOUNT    CLOUDY    66  60  81 CALM      30.24S
FAYETTEVILLE   CLOUDY    68  63  84 NE3       30.24R
CHARLOTTE      CLOUDY    69  62  78 CALM      30.24R
$$

VAZ100-151500-
MARINE

STATION/POSITION TIME  TEMP    WIND        PRES    WAVE   SWELL
                       AIR SEA DIR/SP/G            HT/PER HT/PER
                 (UTC) (F)     (DEG/KT/KT) (MB)    (FT/S) (FT/S)
44066 TX TWR #4  1400   66 73   40/  4/  6 1022.8S   2/ 6   2/ 6
CAPE MAY NJ      1400   63 75  340/  5/  9 1023.6S
LEWES DE         1400   65 71   10/  8/  9 1023.9R
15NM E FENWICK I 1400   66 72              1023.7R   2/ 6
OCEAN-CITY-INLET 1400   65 70  350/  6/  8 1023.8S
WACHAPREAGUE VA  1400   67 71   20/  5/  8 1024.2R
THOMAS POINT MD  1400   64 74   90/  6/  7 1025.5R
GOOSES REEF MD   1300   64     120/  8/ 10 1024.5F
COVE POINT MD    1400   64     120/  5/  8 1024.3S
SOLOMONS ISLAND  1400      76                N/A
BISHOPS HEAD MD  1400   65 70   80/  5/  8 1023.8R
PINEY POINT MD   1400          110/  5/  7   N/A
POTOMAC MD       1300   67      90/  8/ 10 1023.4R
CAMBRIDGE MD     1400   64 75   70/  5/  7 1024.1S
LEWISETTA VA     1400   66 73  310/  3/  3 1023.7S
RAPPAHANNOCK LGT 1400           50/  9/ 10 1024.4F
STINGRAY PT      1400   69      90/  6/ 10   N/A
YORK RVR RNG VA  1400   69      60/  6/  7 1023.3S
YORKTOWN VA      1400   69 77   50/  4/  5 1023.4F
JAMESTOWN VA     1300   67      50/  2/  4   N/A
DOMINION TERM VA 1400   70      20/  4/  6 1023.8R
KIPTOPEKE VA     1400      78   80/  4/  8   N/A
CHES BAY BRIDGE  1400   69 76   50/  5/  6 1023.2S
CAPE HENRY VA    1400   70      40/  6/  8 1022.5R
CHESAPEAKE LGHT  1300   69      40/ 11/ 13 1023.9F
WILLOUBY STN VA  1400   69      10/  2/  3 1022.5R
S CRANEY ISL VA  1400           20/  5/  6 1023.5R
CAPE HENRY BUOY  1400      76                N/A     2/ 6
1ST LANDING BUOY 1300   70      60/  4/  8 1023.3R
CAPE CHARLES BUO 1400      75                N/A     2/ 6   2/ 6
OFFSHORE WE BUOY 1400      74                N/A     3/ 6   2/ 6
64NM E OF VA BCH 1400   71 80   20/ 12/ 16 1022.7R   3/ 6   2/ 6
DUCK PIER NC     1400   70 76   50/  9/ 11 1022.7S
44100 DUCK FRF   1400      75                N/A     3/ 8
44056 DUCK FRF   1400                        N/A     2/ 7
OREGON INLET NC  1400   72 74   20/ 12/ 16 1022.9R
HATTERAS NC      1400   73 77   20/ 13/ 15 1023.1R
DIAMOND SHLS NC  1400   74      20/ 16/ 19 1021.8S   5/ 8   3/ 8
CAPE LOOKOUT NC  1300   72      10/ 11/ 15 1022.5R
$$


USA.gov is the U.S. government's official web portal to all federal, state and local government web resources and services.